F0657D65 Weather Reports


time (UTC)temp
F
wind
direction
speed
knots
gust
knots
rain 1hr
in
rain 24hr
in
rain mn
in
humidity
%
barometer
mb
20260510063038 52 88 0.9 3.5 0.00 0.00 0.00 87 1012.0
20260510061528 51 34 0.9 2.6 0.00 0.00 0.00 86 1011.9
20260510060025 51 42 0.9 1.7 0.00 0.00 0.00 86 1012.1
20260510054521 51 73 0.9 3.5 0.00 0.00 0.00 86 1012.2
20260510053018 51 90 0.0 1.7 0.00 0.00 0.00 86 1012.3
20260510051517 51 65 0.0 2.6 0.00 0.00 0.00 87 1012.4
20260510050015 51 73 0.0 1.7 0.00 0.00 0.00 87 1012.2
20260510044515 51 80 0.0 1.7 0.00 0.00 0.00 87 1012.1
20260510043012 51 123 0.0 2.6 0.00 0.00 0.00 88 1012.2
20260510041511 51 111 0.0 1.7 0.00 0.00 0.00 88 1012.3
20260510040015 51 65 0.0 0.9 0.00 0.00 0.00 88 1012.2
20260510034510 51 57 0.0 2.6 0.00 0.00 0.00 88 1012.4
20260510033009 51 75 0.0 1.7 0.00 0.00 0.00 88 1012.4
20260510031515 51 51 0.0 2.6 0.00 0.00 0.00 88 1012.4
20260510030010 52 5 0.0 1.7 0.00 0.00 0.00 87 1012.6
20260510024504 52 53 0.0 2.6 0.00 0.00 0.00 87 1012.7
20260510023003 52 69 0.0 2.6 0.00 0.00 0.00 87 1012.9
20260510021502 52 61 0.0 1.7 0.00 0.00 0.00 86 1012.9
20260510020100 52 70 0.0 0.9 0.00 0.00 0.00 86 1013.0
20260510014618 52 70 0.0 1.7 0.00 0.00 0.00 86 1013.1
20260510013103 52 38 0.0 1.7 0.00 0.00 0.00 86 1013.3
20260510011556 52 71 0.0 0.9 0.00 0.00 0.00 85 1013.3
20260510010054 53 71 0.0 0.9 0.00 0.00 0.00 85 1013.6
20260510004552 53 53 0.0 0.9 0.00 0.00 0.00 85 1013.7
20260510003052 53 53 0.0 1.7 0.00 0.00 0.00 85 1013.9
20260510001552 53 71 0.0 1.7 0.00 0.00 0.00 84 1014.0
20260510000051 54 71 0.0 0.9 0.00 0.00 0.00 84 1014.2
20260509234547 54 71 0.0 1.7 0.00 0.00 0.00 83 1014.4
20260509233050 54 71 0.0 1.7 0.00 0.00 0.00 83 1014.4
20260509231542 55 71 0.0 1.7 0.00 0.00 0.00 82 1014.5
20260509230040 55 102 0.0 1.7 0.00 0.00 0.00 81 1014.5
20260509224549 55 84 0.0 0.9 0.00 0.00 0.00 82 1014.4
20260509223038 56 67 0.0 0.9 0.00 0.00 0.00 82 1014.4
20260509221539 56 67 0.0 0.9 0.00 0.00 0.00 82 1014.4
20260509220034 56 67 0.0 0.9 0.00 0.00 0.00 82 1014.4
20260509214533 56 67 0.0 0.9 0.00 0.00 0.00 82 1014.4
20260509213033 57 63 0.0 0.9 0.00 0.00 0.00 82 1014.4
20260509211532 57 59 0.0 0.9 0.00 0.00 0.00 81 1014.4
20260509210033 57 59 0.0 0.0 0.00 0.00 0.00 82 1014.4
20260509204531 58 59 0.0 0.0 0.00 0.00 0.00 82 1014.4
20260509203031 58 59 0.0 0.0 0.00 0.00 0.00 81 1014.4
20260509201534 59 59 0.0 0.0 0.00 0.00 0.00 80 1014.3
20260509200029 60 59 0.0 0.0 0.00 0.00 0.00 79 1014.1
20260509194529 60 59 0.0 0.0 0.00 0.00 0.00 78 1014.1
20260509193028 61 59 0.0 0.9 0.00 0.00 0.00 77 1013.6
20260509191528 62 59 0.0 0.9 0.00 0.00 0.00 76 1013.5
20260509190027 63 59 0.0 0.9 0.00 0.00 0.00 74 1013.5
20260509184527 64 59 0.0 0.0 0.00 0.00 0.00 74 1013.5
20260509183027 65 59 0.0 0.9 0.00 0.00 0.00 71 1013.4
20260509181526 66 59 0.0 1.7 0.00 0.00 0.00 69 1013.3
20260509180026 67 94 0.0 2.6 0.00 0.00 0.00 68 1013.4
20260509174526 68 70 0.0 3.5 0.00 0.00 0.00 67 1013.4
20260509173025 69 77 0.9 5.2 0.00 0.00 0.00 64 1013.2
20260509171534 70 84 0.0 2.6 0.00 0.00 0.00 63 1013.4
20260509170029 70 82 0.9 2.6 0.00 0.00 0.00 63 1013.3
20260509164522 70 75 0.9 6.1 0.00 0.00 0.00 66 1013.7
20260509163025 69 5 0.9 2.6 0.00 0.00 0.00 66 1013.7
20260509161523 69 79 0.0 3.5 0.00 0.00 0.00 65 1013.5
20260509160019 69 74 0.0 1.7 0.00 0.00 0.00 66 1013.9
20260509154519 70 85 0.0 2.6 0.00 0.00 0.00 63 1013.9
20260509153016 72 45 0.9 2.6 0.00 0.00 0.00 59 1014.0
20260509151516 73 37 0.9 3.5 0.00 0.00 0.00 63 1014.1
20260509150023 72 88 0.9 4.3 0.00 0.00 0.00 67 1014.3
20260509144523 73 96 0.9 5.2 0.00 0.00 0.00 60 1014.2
20260509143013 73 78 0.9 5.2 0.00 0.00 0.00 60 1014.2
20260509141519 72 91 1.7 4.3 0.00 0.00 0.00 60 1014.2
20260509140011 72 36 0.9 3.5 0.00 0.00 0.00 66 1014.2
20260509134512 72 78 0.9 5.2 0.00 0.00 0.00 67 1014.2
20260509133010 71 104 0.9 5.2 0.00 0.00 0.00 64 1014.3
20260509131509 70 74 1.7 7.8 0.00 0.00 0.00 62 1014.6
20260509130008 73 91 0.9 7.8 0.00 0.00 0.00 55 1014.8
20260509124508 72 38 0.9 7.0 0.00 0.00 0.00 63 1014.7
20260509123004 72 75 3.5 7.8 0.00 0.00 0.00 60 1014.8
20260509121501 72 330 1.7 8.7 0.00 0.00 0.00 62 1015.0
20260509120058 71 30 0.9 6.1 0.00 0.00 0.00 65 1015.0
20260509114558 71 126 0.9 6.1 0.00 0.00 0.00 63 1015.2
20260509113058 71 76 1.7 4.3 0.00 0.00 0.00 61 1015.3
20260509111553 70 103 0.9 5.2 0.00 0.00 0.00 68 1015.4
20260509110051 70 98 0.9 7.0 0.00 0.00 0.00 72 1015.6
20260509104547 69 82 1.7 5.2 0.00 0.00 0.00 75 1015.8
20260509103047 68 107 0.9 5.2 0.00 0.00 0.00 72 1015.8
20260509101550 67 84 0.9 6.1 0.00 0.00 0.00 73 1015.9
20260509100040 66 127 0.9 3.5 0.00 0.00 0.00 71 1016.1
20260509094539 66 33 0.9 5.2 0.00 0.00 0.00 71 1016.0
20260509093037 66 92 0.0 3.5 0.00 0.00 0.00 74 1016.2
20260509091534 65 63 0.0 1.7 0.00 0.00 0.00 73 1016.3
20260509090032 65 35 0.9 6.1 0.00 0.00 0.00 73 1016.3
20260509084527 64 69 0.0 3.5 0.00 0.00 0.00 76 1016.3
20260509083024 62 66 0.0 6.1 0.00 0.00 0.00 77 1016.3
20260509081524 62 113 0.9 5.2 0.00 0.00 0.00 79 1016.4
20260509080021 60 75 0.9 4.3 0.00 0.00 0.00 81 1016.5
20260509074515 59 333 0.9 3.5 0.00 0.00 0.00 82 1016.5
20260509073011 57 78 0.0 3.5 0.00 0.00 0.00 84 1016.5
20260509071506 54 35 0.0 1.7 0.00 0.00 0.00 90 1016.6
20260509070003 52 20 0.0 0.0 0.00 0.00 0.00 91 1016.5
20260509064617 52 20 0.0 0.0 0.00 0.00 0.00 90 1016.6